www.pogodaiklimat.ru

Погода и климат >> Архив погоды >> Латвия >> Скриверу


ПОГОДА в Скриверу

  • Прогноз погоды в Скриверу
  • Монитор погоды в Скриверу

АРХИВ ПОГОДЫ в Скриверу

Время (UTC), дата Ветер
(напр.,м/с)
 
Видим.   Явления Облачность Т
(С)
Тd
(С)
f
(%)
Тe
(С)
Тes
(С)
Комфортность P
(гПа)
Po
(гПа)
Тmin
(С)
Tmax
(С)
R
(мм)
R24
(мм)
S
(см)
15 18.06 С 2-5
{6}
20 км н/о +24.1 +11.3 45 +26 +26 жарко 1019.1 1009.7
18 18.06 С 2-3
{3}
н/о н/о +22.1 +12.8 56 +25 +25 комфорт 1018.1 1008.7
21 18.06 С 1-4
{4}
20 км н/о +14.8 +13.3 91 +15 +15 1018.9 1009.2
00 19.06 СВ 1-3
{3}
13 км н/о +11.8 +11.3 97 +12 +12 1019.4 1009.6
03 19.06 В 1-2
{2}
19 км н/о +14.2 +12.2 88 +15 +15 1018.9 1009.2
06 19.06 Ю 2-4
{4}
20 км н/о +21.5 +14.2 63 +24 +24 комфорт 1018.4 1008.9
09 19.06 ЮЗ 3-6
{6}
20 км н/о +24.2 +12.7 49 +26 +26 жарко 1017.6 1008.3
12 19.06 ЮЗ 2-5
{7}
20 км н/о +27.1 +11.9 39 +28 +28 жарко 1016.5 1007.3
15 19.06 ЮЗ 3-6
{6}
20 км н/о +26.9 +10.1 35 +27 +27 жарко 1015.0 1005.8
18 19.06 СЗ 1-3
{3}
20 км н/о +24.1 +12.6 49 +26 +26 жарко 1014.2 1004.9
21 19.06 СВ 1-2
{2}
19 км н/о +16.3 +13.3 82 +17 +17 1014.2 1004.6
00 20.06 СВ 1-2
{2}
20 км н/о +15.3 +12.4 83 +16 +16 1014.1 1004.5
03 20.06 В 1-2
{2}
20 км н/о +17.3 +13.0 76 +18 +18 1013.3 1003.8
06 20.06 ЮВ 2-4
{4}
20 км н/о +23.5 +14.4 57 +26 +26 жарко 1012.7 1003.4
09 20.06 ЮВ 3-7
{7}
20 км н/о +28.2 +13.6 41 +30 +30 жарко 1012.2 1003.0
12 20.06 Ю 4-6
{8}
20 км н/о +28.4 +14.0 41 +30 +30 жарко 1020.6 1002.2
15 20.06 Ю 3-6
{6}
20 км н/о +28.4 +14.9 44 +31 +31 душно 1009.9 1000.8
18 20.06 З 2-6
{6}
20 км н/о +23.6 +16.6 65 +27 +27 жарко 1010.5 1001.2
21 20.06 С 1-3
{3}
18 км н/о +19.2 +18.3 95 +22 +22 комфорт 1010.7 1001.3
00 21.06 В 1-2
{2}
18 км н/о +18.7 +17.8 95 +21 +21 комфорт 1010.5 1001.1
03 21.06 Ю 1-3
{4}
20 км н/о +18.8 +17.7 93 +21 +21 комфорт 1011.1 1001.7
06 21.06 Ю 2-3
{4}
20 км н/о +21.5 +18.8 85 +26 +26 душно 1011.2 1001.9
09 21.06 З 3-6
{7}
19 км н/о +24.3 +19.1 73 +29 +29 душно 1012.2 1002.9
12 21.06 З 3-5
{6}
20 км н/о +26.5 +13.5 45 +29 +29 жарко 1012.4 1003.2
15 21.06 З 3-5
{6}
20 км н/о +25.6 +16.1 56 +29 +29 душно 1011.8 1002.6
18 21.06 Ю 1-2
{2}
20 км н/о +21.3 +18.3 83 +26 +26 душно 1022.2 1003.4
21 21.06 СЗ 1-2
{3}
11 км н/о +18.1 +17.5 96 +19 +19 1013.8 1004.3
00 22.06 СЗ 1-3
{3}
17 км н/о +16.0 +15.2 95 +17 +17 1024.3 1005.1
03 22.06 З 2-4
{4}
17 км н/о +16.5 +15.6 94 +17 +17 1016.0 1006.4
06 22.06 З 3-6
{7}
20 км н/о +18.6 +13.8 74 +19 +19 1017.1 1007.6
09 22.06 СЗ 4-8
{8}
20 км н/о +20.5 +10.8 54 +22 +22 комфорт 1018.7 1009.2
12 22.06 СЗ 3-7
{8}
20 км н/о +20.9 +10.0 50 +23 +23 комфорт 1019.9 1010.4
15 22.06 СЗ 3-6
{7}
20 км н/о +22.0 +7.7 40 +23 +23 комфорт 1020.2 1010.8
18 22.06 С 2-4
{6}
20 км н/о +18.1 +8.3 53 +19 +19 1021.5 1011.9
21 22.06 С 1-3
{3}
20 км н/о +13.1 +9.5 79 +13 +13 1023.1 1013.3
00 23.06 -2
{4}
20 км н/о +9.3 +8.4 94 1033.7 1013.8
03 23.06 В 1-2
{3}
17 км н/о +8.0 +7.3 95 +7 +7 1024.8 1014.8
06 23.06 С 1-2
{3}
20 км н/о +15.5 +10.9 74 +16 +16 1035.1 1015.7
09 23.06 С 2-4
{4}
20 км н/о +19.6 +9.4 52 +21 +21 комфорт 1024.8 1015.2
12 23.06 С 2-6
{6}
20 км н/о +21.1 +6.2 38 +22 +22 комфорт 1024.0 1014.5
15 23.06 С 2-3
{4}
19 км н/о +22.9 +8.1 39 +24 +24 комфорт 1023.1 1013.7
18 23.06 С 2-4
{5}
20 км н/о +19.2 +5.9 42 +20 +20 1023.4 1013.8
21 23.06 С 1-2
{2}
18 км н/о +12.7 +6.2 65 +13 +13 1024.8 1015.0
00 24.06 СЗ 1-1
{4}
6000 м н/о +9.5 +7.5 87 +9 +9 1026.0 1016.1
09 24.06 СЗ 2-5
{6}
20 км н/о +22.2 +9.0 43 +24 +24 комфорт 1027.5 1018.0
12 24.06 -5
{6}
20 км н/о +23.6 +8.0 37 1027.6 1018.1
15 24.06 СЗ 2-5
{6}
20 км н/о +23.4 +7.4 36 +24 +24 комфорт 1027.6 1018.1
18 24.06 СЗ 2-3
{3}
20 км н/о +20.4 +8.0 45 +22 +22 комфорт 1028.2 1018.6
21 24.06 С 1-2
{2}
19 км н/о +14.1 +10.1 77 +14 +14 1039.4 1019.8
00 25.06 С 1-2
{3}
20 км н/о +10.3 +9.5 95 +10 +10 1030.0 1020.1
06 25.06 Ю 2-3
{3}
20 км н/о +18.7 +10.9 60 +20 +20 1030.1 1020.5
09 25.06 ЮЗ 3-6
{6}
20 км н/о +23.5 +9.8 42 +25 +25 комфорт 1029.7 1020.2
12 25.06 СЗ 2 н/о н/о +25.3 +7.3 32 +25 +25 комфорт 1037.8 1018.8

 

Местоположение метеостанции Скриверу (Латвия): широта 56.65 долгота 25.13 высота над уровнем моря 83 м.

В архиве по умолчанию представлена погода в Скриверу за последнюю неделю. Архивные данные за месяц целиком и за предыдущие месяцы, начиная с января 2011 года, Вы можете получить, выбрав интересующий диапазон дат из раскрывающегося списка и нажав кнопку "Ввод!".


*Определитесь, кто Вы:
робот инопланетянин человек

Внимание! Время в таблицах - всемирное. Для получения местного времени необходимо прибавить поправку, которая равна 2 ч.

Смотрите также архив погоды в соседних городах и на ближайших метеорологических станциях:

Погода в Зилани (Латвия) (51 км)
Погода в Биржае (Литва) (55 км)
Погода в Бауске (Латвия) (62 км)
Погода в Мадоне (Латвия) (71 км)
Погода в Зозени (Латвия) (72 км)
Погода в Риге (Латвия) (75 км)
Погода в Приекули (Латвия) (76 км)
Погода в Елгаве (Латвия) (86 км)
Погода в Скульте (Латвия) (86 км)
Погода в Паневежисе (Литва) (110 км)

Пояснения к столбцам:

Ветер - указаны скорость ветра в м/с - средняя за 10 мин, порывы в срок и между сроками (в фигурных скобках) и направление, откуда дует ветер: С - северный, СВ - северо-восточный, В - восточный, ЮВ - юго-восточный, Ю - южный, ЮЗ - юго-западный, З - западный, СЗ - северо-западный.
Видимость - горизонтальная дальность видимости в метрах или километрах. При видимости от 1 до 10 км при отсутствии осадков обычно наблюдается дымка, при ухудшении видимости до 1 км и менее - туман. В сухую погоду видимость может ухудшаться дымом, пылью или мглою.
Явления - указаны атмосферные явления, наблюдавшиеся в срок или в последний час перед сроком; фигурными скобками обозначены явления, наблюдавшиеся между сроками (за 1-3 часа до срока); квадратными скобками обозначены град или гололедные отложения с указанием их диаметра в мм.
Облачность - указаны через наклонную черту общая и нижняя облачность в баллах и высота нижней границы облаков в метрах; квадратными скобками обозначены формы облаков: Ci - перистые, Cs - перисто-слоистые, Cc - перисто-кучевые, Ac - высококучевые, As - высокослоистые, Sc - слоисто-кучевые, Ns - слоисто-дождевые, Cu - кучевые, Cb - кучево-дождевые. Подробнее классификацию облаков см. в Атласе облаков (PDF).
T - Температура воздуха - температура, измеренная на высоте 2 м над землей.
Td - Температура точки росы - температура, при понижении до которой содержащийся в воздухе водяной пар достигнет насыщения.
f - Относительная влажность воздуха - влажноcть воздуха, измеренная на высоте 2 м над землей.
Te - Эффективная температура - температура, которую ощущает одетый по сезону человек в тени. Характеристика душности погоды. При расчете учитывается влияние влажности воздуха и скорости ветра на теплоощущения человека.
Tes - Эффективная температура на солнце - температура, которую ощущает человек, с поправкой на солнечный нагрев. Характеристика знойности погоды. Зависит от высоты солнца над горизонтом, облачности и скорости ветра. Ночью, в пасмурную погоду, а также при ветре 12 м/с и более поправка равна нулю.
P - Атмосферное давление - приведенное к уровню моря атмосферное давление.
Po - Атмосферное давление - измеренное на уровне метеостанции атмосферное давление.
Tmin - Минимальная температура - минимум температуры воздуха на высоте 2 м над землей.
Tmax - Максимальная температура - максимум температуры воздуха на высоте 2 м над землей.
R - Количество осадков - Количество выпавших осадков за период времени, мм. При наведении курсора мыши на число - период времени, за который выпало указанное количество осадков.
R24 - Количество осадков - Количество выпавших осадков за 24 часа, мм.
S - Снежный покров - Высота снежного покрова, см. При наведении курсора мыши на число - состояние снежного покрова и степень покрытия местности в баллах.